Weather in Yuzhny

Russia / Republic of Kalmykia     45°31′31″N   44°41′39″E
temp.,
°C
wind,
m/s
gust,
m/s
humid.,
%
clouds,
%
prec.,
mm/h
press.,
hPa
HPBL,
m
23 april, fri
fri2300:00+12nw468285 0.0 1022163
03:00+11wnw5987100 0.3 1022235
06:00+11wnw4690100 0.5 1023188
09:00+12w358868 0.6 1023320
12:00+18wnw784910 0.8 10221990
15:00+19nw68405 0.8 10212280
18:00+17nw58525 0.0 1021280
21:00+12nnw34655 0.0 102143
24 april, sat
sat2400:00+12nne2266100 0.0 102010
03:00+12se2266100 0.0 101918
06:00+12sse2371100 0.0 102049
09:00+15s3457100 0.0 1019524
12:00+18sw5647100 0.0 10191260
15:00+20wsw574257 0.0 10182216
18:00+17w58525 0.0 1019337
21:00+13wnw497862 0.0 1020216
25 april, sun
sun2500:00+13nw51078100 0.0 1021560
03:00+12nw3676100 0.0 1022464
06:00+11nw3477100 0.1 1022391
09:00+10n3373100 0.3 1022375
12:00+11ne3367100 0.1 1022377
15:00+14ene345354 0.1 10201072
18:00+14ne675980 0.0 1018488
21:00+11ne71264100 0.0 1017376
26 april, mon
mon2600:00+10ne61169100 0.0 1016271
03:00+10ene61170100 0.1 1015337
06:00+10ne61078100 0.0 1014419
09:00+13ene5659100 0.0 1013648
12:00+16ne4452100 0.0 1012935
15:00+14nne5558100 0.1 1011842
18:00+12n6775100 0.1 1011413
21:00+10nnw3583100 0.7 1014287
27 april, tue
tue2700:00+9nw5991100 0.9 1014480
03:00+10wnw4891100 0.9 1015677
06:00+9nw5888100 0.1 1017576
09:00+12nw5566100 0.1 1018923
12:00+13wnw445482 0.0 10171299
15:00+16w344333 0.0 10161874
18:00+16w23477 0.0 1016157
21:00+11n336477 0.0 101741